TimeCDT,TemperatureF,Dew PointF,Humidity,Sea Level PressureIn,VisibilityMPH,Wind Direction,Wind SpeedMPH,Gust SpeedMPH,PrecipitationIn,Events,Conditions,WindDirDegrees,DateUTC
12:53 AM,60.1,59.0,96,29.97,0.2,Calm,Calm,-,0.01,Fog,Fog,0,2013-05-18 05:53:00
1:09 AM,60.8,60.8,100,29.98,0.5,Calm,Calm,-,N/A,Fog,Fog,0,2013-05-18 06:09:00
1:16 AM,62.6,60.8,94,29.98,0.5,Calm,Calm,-,N/A,Fog,Fog,0,2013-05-18 06:16:00
1:26 AM,60.8,60.8,100,29.98,0.5,Calm,Calm,-,N/A,Fog,Fog,0,2013-05-18 06:26:00
1:40 AM,62.6,60.8,94,29.98,0.8,Calm,Calm,-,N/A,,Overcast,0,2013-05-18 06:40:00
1:53 AM,62.1,62.1,100,29.96,0.2,Calm,Calm,-,N/A,Fog,Fog,0,2013-05-18 06:53:00
2:53 AM,63.0,62.1,97,29.94,0.2,Calm,Calm,-,N/A,Fog,Fog,0,2013-05-18 07:53:00
3:53 AM,62.1,62.1,100,29.95,0.5,Calm,Calm,-,N/A,Fog,Fog,0,2013-05-18 08:53:00
4:53 AM,62.1,62.1,100,29.94,0.2,Calm,Calm,-,N/A,Fog,Fog,0,2013-05-18 09:53:00
5:53 AM,62.1,62.1,100,29.95,0.2,ENE,3.5,-,N/A,Fog,Fog,60,2013-05-18 10:53:00
6:53 AM,63.0,63.0,100,29.98,0.2,Calm,Calm,-,N/A,Fog,Fog,0,2013-05-18 11:53:00
7:53 AM,64.0,64.0,100,29.99,0.2,East,3.5,-,N/A,Fog,Fog,90,2013-05-18 12:53:00
8:18 AM,64.4,64.4,100,30.01,1.0,Variable,4.6,-,N/A,,Mist,0,2013-05-18 13:18:00
8:26 AM,64.4,64.4,100,30.01,2.0,ESE,3.5,-,N/A,,Overcast,120,2013-05-18 13:26:00
8:34 AM,64.4,64.4,100,30.01,3.0,ESE,6.9,-,N/A,,Overcast,120,2013-05-18 13:34:00
8:53 AM,66.0,66.0,100,29.99,8.0,ESE,5.8,-,N/A,,Overcast,110,2013-05-18 13:53:00
9:31 AM,68.0,64.4,88,30.02,10.0,SE,6.9,-,N/A,,Overcast,140,2013-05-18 14:31:00
9:53 AM,69.1,64.9,87,30.00,10.0,SSE,9.2,-,N/A,,Overcast,150,2013-05-18 14:53:00
10:07 AM,69.8,64.4,83,30.02,10.0,SE,5.8,-,N/A,,Overcast,140,2013-05-18 15:07:00
10:24 AM,69.8,66.2,88,30.01,10.0,SE,5.8,-,N/A,,Overcast,140,2013-05-18 15:24:00
10:53 AM,71.1,66.0,84,29.99,10.0,SSE,6.9,-,N/A,,Overcast,150,2013-05-18 15:53:00
11:53 AM,73.9,66.0,76,29.97,10.0,SSE,9.2,-,N/A,,Overcast,150,2013-05-18 16:53:00
12:31 PM,75.2,66.2,73,29.98,10.0,SE,10.4,-,N/A,,Mostly Cloudy,140,2013-05-18 17:31:00
12:53 PM,73.9,66.9,79,29.95,10.0,SSE,8.1,16.1,N/A,,Overcast,150,2013-05-18 17:53:00
2:10 PM,78.8,69.8,74,29.97,10.0,SSE,9.2,-,N/A,,Overcast,150,2013-05-18 19:10:00
2:35 PM,77.0,68.0,74,29.96,10.0,SSE,8.1,-,N/A,,Overcast,150,2013-05-18 19:35:00
2:48 PM,78.8,68.0,69,29.96,10.0,SE,10.4,-,N/A,,Scattered Clouds,140,2013-05-18 19:48:00
2:53 PM,78.1,69.1,74,29.92,10.0,ESE,9.2,-,N/A,,Scattered Clouds,120,2013-05-18 19:53:00
3:20 PM,77.0,69.8,78,29.95,10.0,ESE,9.2,-,N/A,,Mostly Cloudy,120,2013-05-18 20:20:00
3:30 PM,78.8,69.8,74,29.95,10.0,SE,9.2,-,N/A,,Mostly Cloudy,130,2013-05-18 20:30:00
3:53 PM,78.1,69.1,74,29.91,10.0,SSE,6.9,-,N/A,,Mostly Cloudy,150,2013-05-18 20:53:00
5:20 PM,77.0,69.8,78,29.94,10.0,SSE,6.9,-,N/A,,Mostly Cloudy,150,2013-05-18 22:20:00
5:27 PM,77.0,69.8,78,29.94,10.0,SE,6.9,-,N/A,,Overcast,140,2013-05-18 22:27:00
5:53 PM,77.0,70.0,79,29.91,10.0,SE,6.9,-,N/A,,Overcast,140,2013-05-18 22:53:00
6:05 PM,77.0,69.8,78,29.94,10.0,SSE,5.8,-,N/A,,Overcast,150,2013-05-18 23:05:00
6:14 PM,77.0,69.8,78,29.94,10.0,SE,5.8,-,N/A,,Overcast,140,2013-05-18 23:14:00
6:53 PM,77.0,70.0,79,29.89,9.0,SE,6.9,-,N/A,,Scattered Clouds,140,2013-05-18 23:53:00
7:53 PM,75.0,71.1,87,29.89,7.0,SSE,4.6,-,N/A,,Scattered Clouds,150,2013-05-19 00:53:00
8:02 PM,75.2,71.6,89,29.92,7.0,SE,3.5,-,N/A,,Mostly Cloudy,140,2013-05-19 01:02:00
8:46 PM,75.2,71.6,89,29.92,8.0,SSE,4.6,-,N/A,,Overcast,150,2013-05-19 01:46:00
8:53 PM,75.0,71.1,87,29.88,8.0,SSE,5.8,-,N/A,,Overcast,150,2013-05-19 01:53:00
9:31 PM,73.4,69.8,88,29.91,6.0,SSE,8.1,-,N/A,,Overcast,160,2013-05-19 02:31:00
9:46 PM,73.4,69.8,88,29.91,6.0,SSE,6.9,-,N/A,,Mostly Cloudy,160,2013-05-19 02:46:00
9:53 PM,73.9,69.1,85,29.88,6.0,South,8.1,-,N/A,,Haze,170,2013-05-19 02:53:00
11:53 PM,72.0,69.1,91,29.88,4.0,South,5.8,-,N/A,,Mostly Cloudy,170,2013-05-19 04:53:00